Location: Mladá Boleslav
(50.4134°N, 14.9084°E)
Time: 17:01:36
(UTC+02:00)

KKS-1 - Pass Details

Date: 27 May 2024
Orbit: 626 x 640 km, 98.1° (Epoch: 20 June)

Event Time Altitude Azimuth Distance (km) Brightness Sun altitude
Rises 00:08:11 0° 17° (NNE) 2,943 ? -17.4°
Reaches altitude 10° 00:10:27 10° 22° (NNE) 2,027 ? -17.5°
Maximum altitude 00:14:47 55° 101° (E) 761 ? -17.6°
Enters shadow 00:16:18 36° 159° (SSE) 1,006 ? -17.7°
